Weather History for KELO - April, 2014

Change the Weather History Date:

Wednesday, April 30, 2014

  Actual Average Record
Temperature  
Mean Temperature 35 °F -  
Max Temperature 37 °F 57 °F 77 °F (1998)
Min Temperature 33 °F 31 °F 21 °F (2003)
Degree Days  
Heating Degree Days 30    
Moisture  
Dew Point 35 °F    
Average Humidity 97    
Maximum Humidity 100    
Minimum Humidity 93    
Precipitation  
Precipitation 0.19 in - - ()
Sea Level Pressure  
Sea Level Pressure 29.80 in    
Wind  
Wind Speed 6 mph (North)    
Max Wind Speed 9 mph    
Max Gust Speed -    
Visibility 6 miles    
Events Rain , Snow    
Averages and records for this station are not official NWS values.
T = Trace of Precipitation, MM = Missing Value Source: NWS Daily Summary

Daily Weather History Graph

Daily Weather History Graph

Search for Another Location

Airport or City:

Trip Planner

Search our weather history database for the weather conditions in past years. The results will help you decide how hot, cold, wet, or windy it might be!

Date:

Astronomy

Apr. 30, 2014 Rise Set
Actual Time 5:51 AM CDT 8:18 PM CDT
Civil Twilight 5:16 AM CDT 8:53 PM CDT
Nautical Twilight 4:33 AM CDT 9:36 PM CDT
Astronomical Twilight 3:44 AM CDT 10:26 PM CDT
Moon 6:50 AM CDT (4/30) 10:01 PM CDT (4/30)
Length of Visible Light 15h 36m
Length of Day
14h 27m
New Moon, 2% of the Moon is Illuminated
Apr 30
New Moon
May 6
First Quarter
May 14
Full
May 21
Last Quarter
May 28
New

Hourly Weather History & Observations

Time (CDT) Temp. Windchill Dew Point Humidity Pressure Visibility Wind Dir Wind Speed Gust Speed Precip Events Conditions
12:13 AM 33.8 °F 26.4 °F 33.8 °F 100% 29.83 in 10.0 mi NNE 9.2 mph - N/A   Overcast
12:32 AM 33.8 °F 28.6 °F 33.8 °F 100% 29.83 in 10.0 mi NNE 5.8 mph - N/A   Overcast
12:53 AM 33.8 °F 28.6 °F 33.8 °F 100% 29.82 in 10.0 mi NNE 5.8 mph - N/A   Overcast
1:13 AM 33.8 °F 26.4 °F 33.8 °F 100% 29.82 in 10.0 mi NNE 9.2 mph - N/A   Overcast
1:32 AM 33.8 °F 27.7 °F 33.8 °F 100% 29.81 in 10.0 mi NNE 6.9 mph - N/A   Overcast
1:53 AM 35.6 °F 29.9 °F 33.8 °F 93% 29.81 in 10.0 mi NNE 6.9 mph - N/A   Overcast
2:13 AM 35.6 °F 29.9 °F 33.8 °F 93% 29.81 in 10.0 mi NNE 6.9 mph - N/A   Overcast
2:32 AM 35.6 °F 29.9 °F 33.8 °F 93% 29.81 in 10.0 mi NNE 6.9 mph - N/A   Overcast
2:53 AM 35.6 °F 29.9 °F 33.8 °F 93% 29.81 in 10.0 mi NNE 6.9 mph - N/A   Overcast
3:13 AM 35.6 °F 30.7 °F 33.8 °F 93% 29.81 in 10.0 mi NNE 5.8 mph - N/A   Overcast
3:32 AM 35.6 °F 29.9 °F 33.8 °F 93% 29.81 in 10.0 mi NNE 6.9 mph - N/A   Overcast
3:53 AM 35.6 °F 29.9 °F 33.8 °F 93% 29.81 in 10.0 mi NNE 6.9 mph - N/A   Overcast
4:13 AM 35.6 °F 29.2 °F 33.8 °F 93% 29.81 in 5.0 mi NNE 8.1 mph - N/A Rain Light Rain
4:32 AM 35.6 °F 31.7 °F 33.8 °F 93% 29.80 in 10.0 mi NNE 4.6 mph - N/A Rain Light Rain
4:53 AM 35.6 °F 29.9 °F 33.8 °F 93% 29.80 in 10.0 mi NNE 6.9 mph - N/A Rain Light Rain
5:13 AM 35.6 °F 30.7 °F 33.8 °F 93% 29.80 in 10.0 mi NNE 5.8 mph - 0.01 in Rain Light Rain
5:32 AM 33.8 °F 29.6 °F 33.8 °F 100% 29.80 in 10.0 mi NNE 4.6 mph - 0.01 in Rain Light Rain
5:53 AM 33.8 °F 30.8 °F 33.8 °F 100% 29.80 in 7.0 mi North 3.5 mph - N/A Rain Light Rain
6:13 AM 33.8 °F 29.6 °F 33.8 °F 100% 29.80 in 4.0 mi North 4.6 mph - 0.01 in Snow Light Snow
6:32 AM 33.8 °F 30.8 °F 33.8 °F 100% 29.80 in 7.0 mi North 3.5 mph - 0.02 in Rain Light Rain
6:53 AM 33.8 °F 30.8 °F 32.0 °F 93% 29.80 in 2.5 mi North 3.5 mph - 0.03 in Snow Light Snow
7:12 AM 33.8 °F 29.6 °F 32.0 °F 93% 29.80 in 3.0 mi North 4.6 mph - 0.01 in Snow Snow
7:32 AM 33.8 °F 28.6 °F 33.8 °F 100% 29.80 in 4.0 mi North 5.8 mph - 0.01 in Rain Rain
7:53 AM 33.8 °F 29.6 °F 33.8 °F 100% 29.80 in 7.0 mi North 4.6 mph - 0.01 in Rain Light Rain
8:12 AM 33.8 °F 28.6 °F 33.8 °F 100% 29.79 in 7.0 mi North 5.8 mph - N/A Rain Rain
8:33 AM 33.8 °F 28.6 °F 33.8 °F 100% 29.79 in 4.0 mi North 5.8 mph - N/A Rain Light Rain
8:53 AM 33.8 °F 29.6 °F 33.8 °F 100% 29.79 in 7.0 mi North 4.6 mph - 0.01 in Rain Light Rain
9:13 AM 33.8 °F 28.6 °F 33.8 °F 100% 29.79 in 5.0 mi North 5.8 mph - N/A Rain Rain
9:33 AM 33.8 °F 27.7 °F 33.8 °F 100% 29.79 in 2.0 mi North 6.9 mph - 0.03 in Snow Light Snow
9:53 AM 33.8 °F 30.8 °F 33.8 °F 100% 29.80 in 3.0 mi North 3.5 mph - N/A Snow Snow
10:13 AM 35.6 °F 32.8 °F 33.8 °F 93% 29.79 in 4.0 mi North 3.5 mph - N/A Rain Rain
10:33 AM 35.6 °F 30.7 °F 33.8 °F 93% 29.79 in 7.0 mi North 5.8 mph - 0.01 in Rain Light Rain
10:53 AM 35.6 °F 28.6 °F 33.8 °F 93% 29.78 in 10.0 mi North 9.2 mph - 0.02 in Rain Light Rain
11:13 AM 35.6 °F 29.9 °F 35.6 °F 100% 29.79 in 5.0 mi North 6.9 mph - N/A Rain Light Rain
11:33 AM 35.6 °F 31.7 °F 35.6 °F 100% 29.79 in 5.0 mi North 4.6 mph - N/A Rain Light Rain
11:53 AM 35.6 °F 29.2 °F 35.6 °F 100% 29.79 in 5.0 mi NNE 8.1 mph - N/A   Overcast
12:13 PM 35.6 °F 30.7 °F 35.6 °F 100% 29.79 in 4.0 mi NNE 5.8 mph - N/A Rain Light Rain
12:32 PM 37.4 °F 32.8 °F 35.6 °F 93% 29.79 in 7.0 mi NNE 5.8 mph - N/A   Overcast
12:53 PM 35.6 °F 31.7 °F 35.6 °F 100% 29.79 in 10.0 mi North 4.6 mph - N/A Rain Rain
1:13 PM 37.4 °F 32.8 °F 35.6 °F 93% 29.79 in 2.5 mi North 5.8 mph - N/A   Light Drizzle
1:32 PM 37.4 °F 32.8 °F 35.6 °F 93% 29.79 in 1.8 mi North 5.8 mph - N/A   Overcast
1:53 PM 37.4 °F 33.8 °F 35.6 °F 93% 29.79 in 1.8 mi North 4.6 mph - N/A   Overcast
2:12 PM 37.4 °F 31.4 °F 35.6 °F 93% 29.80 in 1.8 mi NNE 8.1 mph - N/A Rain Light Rain
2:33 PM 37.4 °F 32.1 °F 35.6 °F 93% 29.79 in 2.0 mi North 6.9 mph - N/A   Light Drizzle
2:53 PM 37.4 °F 32.1 °F 37.4 °F 100% 29.79 in 2.0 mi North 6.9 mph - N/A   Overcast
3:12 PM 37.4 °F 34.9 °F 37.4 °F 100% 29.79 in 3.0 mi NNE 3.5 mph - N/A   Overcast
3:33 PM 37.4 °F 33.8 °F 37.4 °F 100% 29.79 in 2.5 mi North 4.6 mph - N/A   Drizzle
3:53 PM 37.4 °F 32.8 °F 37.4 °F 100% 29.79 in 3.0 mi North 5.8 mph - N/A Rain Light Rain
4:12 PM 37.4 °F 34.9 °F 37.4 °F 100% 29.80 in 2.5 mi North 3.5 mph - N/A   Light Drizzle
4:33 PM 37.4 °F 32.8 °F 37.4 °F 100% 29.79 in 2.5 mi NNE 5.8 mph - N/A Rain Rain
4:53 PM 37.4 °F 32.1 °F 37.4 °F 100% 29.79 in 4.0 mi NNE 6.9 mph - N/A Rain Light Rain
5:12 PM 37.4 °F 32.8 °F 35.6 °F 93% 29.79 in 3.0 mi North 5.8 mph - N/A Rain Light Rain
5:33 PM 37.4 °F 32.1 °F 35.6 °F 93% 29.79 in 5.0 mi North 6.9 mph - N/A Rain Light Rain
5:53 PM 37.4 °F 33.8 °F 35.6 °F 93% 29.80 in 3.0 mi North 4.6 mph - 0.01 in Rain Light Rain
6:12 PM 37.4 °F 33.8 °F 35.6 °F 93% 29.80 in 5.0 mi North 4.6 mph - N/A Rain Light Rain
6:33 PM 37.4 °F 32.8 °F 35.6 °F 93% 29.80 in 7.0 mi North 5.8 mph - 0.01 in Rain Rain
6:52 PM 37.4 °F 32.8 °F 35.6 °F 93% 29.80 in 7.0 mi North 5.8 mph - 0.02 in Rain Light Rain
7:13 PM 37.4 °F 33.8 °F 35.6 °F 93% 29.80 in 7.0 mi North 4.6 mph - N/A Rain Light Rain
7:33 PM 37.4 °F 33.8 °F 35.6 °F 93% 29.80 in 7.0 mi North 4.6 mph - 0.01 in Rain Rain
7:53 PM 37.4 °F - 35.6 °F 93% 29.80 in 7.0 mi Calm Calm - N/A Rain Light Rain
8:12 PM 35.6 °F 32.8 °F 35.6 °F 100% 29.80 in 10.0 mi North 3.5 mph - 0.01 in Rain Light Rain
8:33 PM 35.6 °F 30.7 °F 35.6 °F 100% 29.80 in 10.0 mi North 5.8 mph - 0.01 in Rain Rain
8:53 PM 35.6 °F 30.7 °F 35.6 °F 100% 29.80 in 10.0 mi North 5.8 mph - 0.01 in Rain Light Rain
9:13 PM 35.6 °F 31.7 °F 35.6 °F 100% 29.80 in 10.0 mi North 4.6 mph - N/A   Drizzle
9:32 PM 35.6 °F 30.7 °F 35.6 °F 100% 29.80 in 10.0 mi North 5.8 mph - N/A Rain Rain
9:53 PM 35.6 °F 30.7 °F 35.6 °F 100% 29.79 in 7.0 mi North 5.8 mph - N/A   Drizzle
10:13 PM 35.6 °F 31.7 °F 35.6 °F 100% 29.79 in 7.0 mi North 4.6 mph - N/A Rain Rain
10:32 PM 35.6 °F 32.8 °F 35.6 °F 100% 29.79 in 7.0 mi North 3.5 mph - 0.01 in Rain Light Rain
10:53 PM 35.6 °F 32.8 °F 35.6 °F 100% 29.78 in 7.0 mi North 3.5 mph - 0.02 in Rain Light Rain
11:13 PM 35.6 °F 32.8 °F 35.6 °F 100% 29.78 in 7.0 mi North 3.5 mph - 0.01 in Rain Light Rain
11:32 PM 35.6 °F 30.7 °F 35.6 °F 100% 29.78 in 7.0 mi North 5.8 mph - 0.01 in Rain Rain
11:53 PM 35.6 °F 31.7 °F 35.6 °F 100% 29.77 in 7.0 mi North 4.6 mph - 0.01 in Rain Light Rain